Navi Breeze — V4JJ2 — position and weather

sailwx.info

Track history (hours):
 
Tides and Currents Weather Stations Pressure Air Temp Water Temp Dewpoint Dewpoint Depression Visibility Wind Speed Wind Dir Waves Ship Positions

Navi Breeze

Last reported at 2014-Aug-22 15:06 UTC. Time now 2014-Sep-02 04:20 UTC.
Position N 45°04' E 036°31'.
Warning: this ship's position is 10 days out of date.

Length 114 m; draft 2.9 m.

Type: Cargo ship. MMSI: 341071000.

Date/timePositionNaut miles runAvg speedWind from/ knotsBaromVisibWave heightAir tempDewpointWater temp
2014-Aug-22 15:06N 45°04' E 036°31'4 7.8
2014-Aug-22 14:33N 44°60' E 036°31'96 6.7
2014-Aug-22 00:11N 44°14' E 034°33'312 7.5
2014-Aug-20 06:22N 40°60' E 028°60'4 4.9
2014-Aug-20 05:30N 40°56' E 028°60'5 5.8
2014-Aug-20 04:33N 40°51' E 029°03'5 4.8
2014-Aug-20 03:29N 40°51' E 029°10'1 0.6
2014-Aug-20 02:26N 40°51' E 029°10'0 0.0
2014-Aug-20 01:32N 40°51' E 029°10'0 0.0
2014-Aug-20 00:32N 40°51' E 029°10'0 0.0
2014-Aug-19 23:26N 40°51' E 029°10'0 0.0
2014-Aug-19 22:20N 40°51' E 029°10'0 0.0
2014-Aug-19 21:08N 40°51' E 029°10'0 0.1
2014-Aug-19 20:32N 40°51' E 029°10'0 0.0
2014-Aug-19 19:08N 40°51' E 029°10'0 0.0
2014-Aug-19 18:32N 40°51' E 029°10'0 0.0
2014-Aug-19 16:32N 40°51' E 029°10'0 0.0
2014-Aug-19 15:32N 40°51' E 029°10'0 0.0
2014-Aug-19 14:26N 40°51' E 029°10'0 0.0
2014-Aug-19 13:20N 40°51' E 029°10'0 0.0
2014-Aug-19 10:20N 40°51' E 029°10'0 0.0
2014-Aug-19 09:32N 40°51' E 029°10'0 0.0
2014-Aug-19 08:08N 40°51' E 029°10'0 0.0
2014-Aug-19 07:26N 40°51' E 029°10'0 0.0
2014-Aug-19 06:26N 40°51' E 029°10'0 0.0
2014-Aug-19 05:26N 40°51' E 029°10'0 0.0
2014-Aug-19 04:32N 40°51' E 029°10'0 0.0
2014-Aug-19 03:20N 40°51' E 029°10'0 0.0
2014-Aug-19 01:08N 40°51' E 029°10'0 0.0
2014-Aug-18 22:32N 40°51' E 029°10'0 0.0
2014-Aug-18 20:29N 40°51' E 029°10'1 1.6
2014-Aug-18 19:33N 40°50' E 029°11'8 7.5
2014-Aug-18 18:27N 40°45' E 029°20'  
Track history (hours):
 
Tides and Currents Weather Stations Pressure Air Temp Water Temp Dewpoint Dewpoint Depression Visibility Wind Speed Wind Dir Waves Ship Positions

Navi Breeze

Last reported at 2014-Aug-22 15:06 UTC. Time now 2014-Sep-02 04:20 UTC.
Position N 45°04' E 036°31'.
Warning: this ship's position is 10 days out of date.

Length 114 m; draft 2.9 m.

Type: Cargo ship. MMSI: 341071000.

Date/timePositionNaut miles runAvg speedWind from/ knotsBaromVisibWave heightAir tempDewpointWater temp
2014-Aug-22 15:06N 45°04' E 036°31'4 7.8
2014-Aug-22 14:33N 44°60' E 036°31'96 6.7
2014-Aug-22 00:11N 44°14' E 034°33'312 7.5
2014-Aug-20 06:22N 40°60' E 028°60'4 4.9
2014-Aug-20 05:30N 40°56' E 028°60'5 5.8
2014-Aug-20 04:33N 40°51' E 029°03'5 4.8
2014-Aug-20 03:29N 40°51' E 029°10'1 0.6
2014-Aug-20 02:26N 40°51' E 029°10'0 0.0
2014-Aug-20 01:32N 40°51' E 029°10'0 0.0
2014-Aug-20 00:32N 40°51' E 029°10'0 0.0
2014-Aug-19 23:26N 40°51' E 029°10'0 0.0
2014-Aug-19 22:20N 40°51' E 029°10'0 0.0
2014-Aug-19 21:08N 40°51' E 029°10'0 0.1
2014-Aug-19 20:32N 40°51' E 029°10'0 0.0
2014-Aug-19 19:08N 40°51' E 029°10'0 0.0
2014-Aug-19 18:32N 40°51' E 029°10'0 0.0
2014-Aug-19 16:32N 40°51' E 029°10'0 0.0
2014-Aug-19 15:32N 40°51' E 029°10'0 0.0
2014-Aug-19 14:26N 40°51' E 029°10'0 0.0
2014-Aug-19 13:20N 40°51' E 029°10'0 0.0
2014-Aug-19 10:20N 40°51' E 029°10'0 0.0
2014-Aug-19 09:32N 40°51' E 029°10'0 0.0
2014-Aug-19 08:08N 40°51' E 029°10'0 0.0
2014-Aug-19 07:26N 40°51' E 029°10'0 0.0
2014-Aug-19 06:26N 40°51' E 029°10'0 0.0
2014-Aug-19 05:26N 40°51' E 029°10'0 0.0
2014-Aug-19 04:32N 40°51' E 029°10'0 0.0
2014-Aug-19 03:20N 40°51' E 029°10'0 0.0
2014-Aug-19 01:08N 40°51' E 029°10'0 0.0
2014-Aug-18 22:32N 40°51' E 029°10'0 0.0
2014-Aug-18 20:29N 40°51' E 029°10'1 1.6
2014-Aug-18 19:33N 40°50' E 029°11'8 7.5
2014-Aug-18 18:27N 40°45' E 029°20'  

Dump ship's entire track history